Date,TemperatureHighF,TemperatureAvgF,TemperatureLowF,DewpointHighF,DewpointAvgF,DewpointLowF,HumidityHigh,HumidityAvg,HumidityLow,PressureMaxIn,PressureMinIn,WindSpeedMaxMPH,WindSpeedAvgMPH,GustSpeedMaxMPH,PrecipitationSumIn
2013-10-1,67.7,60.8,56.2,40.2,30.6,24.8,55,33,22,29.83,29.78,3,1,5,0.00
2013-10-2,65.4,57.4,49.8,44.8,34.9,10.6,80,45,16,29.83,29.75,3,1,5,0.00
2013-10-3,58.0,52.5,49.2,46.8,30.4,9.1,79,46,18,29.82,29.72,5,1,7,0.00
2013-10-4,58.0,48.9,43.2,18.4,11.1,4.9,30,22,12,30.12,29.84,6,2,10,0.00
2013-10-5,65.2,53.4,43.8,14.7,8.0,-3.0,29,17,9,30.20,30.10,6,2,11,0.00
2013-10-6,68.3,58.7,50.5,15.2,0.1,-25.0,15,10,3,30.12,29.98,4,1,7,0.00
2013-10-7,67.1,58.3,51.2,35.8,13.1,2.3,54,18,10,29.98,29.82,3,1,7,0.00
2013-10-8,58.6,51.3,41.3,44.0,26.0,8.3,95,44,17,29.84,29.66,3,1,5,0.00
2013-10-9,41.1,35.4,30.9,39.7,34.4,30.1,97,96,95,29.76,29.59,8,3,14,0.24
2013-10-10,41.2,35.1,29.0,40.4,34.2,28.0,97,97,96,30.11,29.77,1,0,3,0.21
2013-10-11,54.2,46.7,38.6,40.6,34.9,29.3,94,64,54,30.11,29.97,2,0,4,0.03
2013-10-12,57.3,49.2,44.2,41.4,33.3,25.6,82,55,43,29.98,29.85,2,0,5,0.00
2013-10-13,51.6,46.5,42.7,38.6,31.3,22.4,76,56,34,30.00,29.84,4,1,5,0.00
2013-10-14,56.9,49.1,43.2,29.7,24.3,7.2,50,38,19,30.05,29.98,4,1,9,0.00
2013-10-15,57.1,49.4,44.0,26.9,19.3,4.5,38,30,17,30.01,29.93,3,2,8,0.00
2013-10-16,59.0,49.2,43.3,24.0,18.3,11.1,39,29,22,30.10,29.98,5,1,8,0.00
2013-10-17,60.9,52.6,47.2,26.0,19.2,7.8,36,27,18,30.05,29.92,3,1,5,0.00
2013-10-18,63.9,55.7,49.5,24.2,14.6,-14.0,34,21,5,30.01,29.94,3,1,6,0.00
2013-10-19,67.7,57.6,51.8,26.6,6.2,-12.0,31,14,6,30.02,29.95,2,0,4,0.00
2013-10-20,64.7,58.6,54.4,26.4,12.5,0.0,31,17,10,29.95,29.82,2,0,3,0.00
2013-10-21,68.4,59.8,55.3,25.9,13.4,0.9,28,16,10,29.93,29.86,2,0,5,0.00
2013-10-22,67.8,59.8,55.5,35.3,17.1,6.9,42,20,13,29.94,29.84,2,0,4,0.00
2013-10-23,65.1,57.6,53.6,27.5,20.9,16.2,28,24,20,29.85,29.79,3,0,4,0.00
2013-10-24,64.4,56.7,51.4,33.5,20.6,14.6,36,25,18,29.96,29.82,3,0,8,0.00
2013-10-25,67.4,59.1,52.7,30.0,20.6,15.3,30,22,18,30.05,29.96,3,0,5,0.00
2013-10-26,68.0,60.8,56.6,27.9,22.5,15.8,31,23,19,30.05,29.93,2,0,4,0.00
2013-10-27,63.0,54.7,41.9,39.7,25.6,18.2,92,35,18,29.92,29.62,5,1,9,0.00
2013-10-28,41.6,36.6,32.5,39.7,35.5,31.7,97,96,93,29.89,29.58,8,4,14,0.21
2013-10-29,35.6,33.6,31.0,35.0,32.8,30.2,98,97,97,30.05,29.90,4,1,7,0.11
2013-10-30,46.3,38.1,31.2,40.4,30.0,0.0,98,77,16,30.15,30.03,3,1,7,0.01
2013-10-31,53.4,47.3,40.8,25.7,16.2,5.7,45,29,21,30.18,30.06,7,1,9,0.00